Tracking 18987 objects as of 25-Feb-2018
HD Live streaming from Space Station
objects crossing your sky now

NOAA 16 DEB

Track NOAA 16 DEB now!
10-day predictions


NORAD ID: 41126
Int'l Code: 2000-055BH
Perigee: 846.2 km
Apogee: 961.7 km
Inclination: 98.9 °
Period: 102.9 minutes
Semi major axis: 7274 km
RCS: Unknown
Launch date: September 21, 2000
Source: United States (US)
Launch site: AIR FORCE WESTERN TEST RANGE (AFWTR)

Note: This is SATELLITE DEBRIS
aabbcc
Your satellite tracking list
Your tracking list is empty




NASA's NSSDC Master Catalog

Two Line Element Set (TLE):
1 41126U 00055BH  18055.37245811 +.00000903 +00000-0 +63566-3 0  9995
2 41126 098.8721 112.5487 0079363 203.6131 156.1383 13.99137293113642
Source of the keplerian elements: AFSPC